STARLINK-3610, 51812

Orbit data source: Space-Track

STARLINK-3610, 51812 is a payload satellite owned by SpaceX/Seattle (US) in LEO that was launched on Fri, 25 Feb 2022 UTC via an FALCON 9 launch vehicle from the Air Force Western Test Range (AFWTR). Payload-class satellites include a variety of spacecraft equipped with specific instruments for various scientific and technological missions. These include communications satellites like Starlink; space stations such as the ISS; scientific satellites like the Hubble; Earth observation satellites from companies like Planet Labs, Umbra, and HawkEye 360; GPS; miniature CubeSats for education and research; and military/defense satellites.

Loading next visibility...
Identifier
51812, 2022-017AW
Orbit
LEO
Country
Flag of USUS
Related business
Manufacturer
SpaceX/Seattle
Mission
Operational Commercial Communications
Bus & Motor
STARLINK, Unknown motor
Mass
297 kg wet, ~275 kg dry
Launch date (UTC)
2022-02-25 (4 years ago)
Launch vehicle
FALCON 9
Launch site
Air Force Western Test Range (AFWTR)
Object type
Payload
Rocket body
Debris
Shape & HBR
Box + 1 Pan, 10.1 m
Radar Cross Section
13.562 m², Large (>1 m²)

Expand to show TLE details & history
Last TLE update: 2 days ago

TLE from 2 days ago
0 STARLINK-3610
1 51812U 22017AW  26171.44107404 -.00001028  00000-0 -46515-4 0  9998
2 51812  53.1586 227.7349 0001127  86.5692 273.5429 15.08832444239597
Epoch: 2026-06-20T10:35Z
TLE epoch observation values (Epoch: 2026-06-20T10:35:08.797Z)
Latitude
0.00006°
Longitude
160.29263°
Altitude
540.61 km
Speed
7.593 km/s
True Right ascension
15h 10m 56s
True Declination
0° 00' 00"
Sunlit
Object was in full shadow at epoch
Visualization orbit readout
Latitude
Unknown
Longitude
Unknown
Altitude
Unknown
Speed
Unknown
Apparent Right ascension
Unknown
Apparent Declination
Unknown
Sunlit
N/A
Visualization observer readout
Local Sidereal Time
21:34:41
Azimuth
Unknown
Elevation
Unknown
Doppler factor
Unknown
Orbital elements
Apogee altitude
540.801 km
Perigee altitude
539.241 km
Semi-major axis
6,918.158 km
Eccentricity
0.00011
Inclination
53.1586°
RAAN
227.7349°
Arg. of periapsis
86.5692°
True anomaly
273.53001°
Mean anomaly
273.5429°
Eccentric anomaly
273.53646°
Mean motion
3.77188 °/min
Orbital period
95.44 mins
BSTAR
-0.000046515
Loading maneuver chart data...
Computing Atmospheric mass density...
Loading historical data...
Loading historical data...
Loading historical data...
Loading historical data...
Loading historical data...
Loading historical data...
Loading historical data...

Documentation

Showing up to 5 results
|